Flag for Germany Weather past 2 weeks in Herten, North Rhine-Westphalia, Germany

Now
45 °F

Partly sunny.


Feels Like: 43 °F
Forecast: 37 / 44 °F
Wind: 5 mph from West

Location: Essen

Current Time: Mar 31, 2015 at 8:44:19 PM

Latest Report: Mar 31, 2015 at 8:00 PM


Visibility: 31 mi

Pressure: 29.73 "Hg

Humidity: 71%

Dew point: 36 °F

Location of HertenLocation

Historic Weather in Herten — Graph

°F

Herten temperature yesterday

Maximum temperature yesterday: 47 °F (at 4:00 PM)
Minimum temperature yesterday: 41 °F (at 4:00 AM)
Average temperature yesterday: 44 °F

Past Weeks' High & Low Weather Summary

 TemperatureHumidityPressure
High62 °F (Mar 17, 3:00 PM)100% (Mar 19, 12:00 AM)30.39 "Hg (Mar 19, 12:00 AM)
Low34 °F (Mar 23, 4:00 AM)39% (Mar 17, 3:00 PM)29.23 "Hg (Mar 29, 8:00 PM)
Average44 °F81%29.98 "Hg
* Reported Mar 16 6:00 PM — Mar 31 7:00 PM, Herten, Weather by CustomWeather, © 2015

Note: Actual official high and low records may vary slightly from our data, if they occured in-between our weather recording intervals... More about our weather records

Advertising

Herten weather history for previous 24 hours

 ConditionsComfort  
Time TempWeatherWind HumidityBarometerVisibility
7:00 PM
Tue, Mar 31
44 °FRain. Low clouds.9 mph70%29.71 "Hg2 mi
6:00 PM49 °FOvercast.7 mph51%29.69 "Hg43 mi
5:00 PM49 °FPartly sunny.8 mph48%29.66 "Hg31 mi
4:00 PM49 °FOvercast.9 mph51%29.62 "Hg31 mi
3:00 PM49 °FOvercast.10 mph51%29.57 "Hg34 mi
2:00 PM50 °FOvercast.12 mph54%29.53 "Hg25 mi
1:00 PM50 °FPartly sunny.9 mph61%29.47 "Hg25 mi
12:00 PM49 °FLow clouds.12 mph66%29.41 "Hg22 mi
11:00 AM50 °FOvercast.9 mph65%29.38 "Hg25 mi
10:00 AM50 °FOvercast.9 mph71%29.35 "Hg28 mi
9:00 AM50 °FOvercast.10 mph83%29.29 "Hg25 mi
8:00 AM49 °FLight freezing rain. Low clouds.14 mph94%29.26 "Hg7 mi
7:00 AM49 °FLight rain. Low clouds.13 mph99%29.23 "Hg2 mi
6:00 AM50 °FLight freezing rain. Low clouds.13 mph100%29.26 "Hg2 mi
5:00 AM50 °FLight freezing rain. Low clouds.12 mph96%29.26 "Hg14 mi
4:00 AM44 °FLight rain. Low clouds.8 mph100%29.35 "Hg2 mi
3:00 AM41 °FRain. Low clouds.7 mph100%29.44 "Hg2 mi
2:00 AM40 °FRain. Low clouds.6 mph100%29.54 "Hg2 mi
1:00 AM40 °FRain. Low clouds.7 mph93%29.65 "Hg3 mi
12:00 AM43 °FLight rain. Low clouds.7 mph67%29.71 "Hg12 mi
11:00 PM
Mon, Mar 30
42 °FOvercast.2 mph63%29.76 "Hg28 mi
10:00 PM42 °FOvercast.3 mph66%29.81 "Hg31 mi
9:00 PM42 °FOvercast.3 mph60%29.84 "Hg34 mi
8:00 PM43 °FScattered clouds.5 mph57%29.85 "Hg34 mi
Weather by CustomWeather, © 2015

See weather overviewHow to use our weather pages